FW6799 Weather Reports


time (UTC)temp
F
wind
direction
speed
knots
gust
knots
rain 1hr
in
rain 24hr
in
rain mn
in
humidity
%
barometer
mb
20260509024552 74 108 13.0 16.5 0.00 0.00 0.00 25 1020.4
20260509023140 73 103 9.6 15.6 0.00 0.00 0.00 25 1020.8
20260509021608 72 83 8.7 17.4 0.00 0.00 0.00 26 1021.0
20260509020050 72 88 10.4 17.4 0.00 0.00 0.00 26 1021.1
20260509014646 71 77 9.6 16.5 0.00 0.00 0.00 26 1021.2
20260509013103 70 100 9.6 15.6 0.00 0.00 0.00 27 1021.3
20260509011605 69 131 9.6 18.2 0.00 0.00 0.00 28 1021.4
20260509010149 68 102 13.0 20.0 0.00 0.00 0.00 29 1021.4
20260509004633 67 79 9.6 16.5 0.00 0.00 0.00 29 1021.3
20260509003111 66 92 12.2 18.2 0.00 0.00 0.00 31 1021.4
20260509000201 64 96 7.8 15.6 0.00 0.00 0.00 34 1021.4
20260508190055 62 106 6.1 10.4 0.00 0.00 0.00 36 1019.7
20260508184713 62 63 7.0 11.3 0.00 0.00 0.00 36 1019.8
20260508183138 62 93 7.0 11.3 0.00 0.00 0.00 36 1019.8
20260508181850 63 85 9.6 13.0 0.00 0.00 0.00 35 1019.8
20260508180324 63 99 7.8 13.0 0.00 0.00 0.00 35 1019.8
20260508173407 64 95 8.7 12.2 0.00 0.00 0.00 34 1020.1
20260508171601 64 113 7.8 11.3 0.00 0.00 0.00 34 1020.2
20260508161558 63 101 4.3 8.7 0.00 0.00 0.00 35 1020.1
20260508160108 64 116 4.3 7.8 0.00 0.00 0.00 35 1020.1
20260508154815 63 105 2.6 7.0 0.00 0.00 0.00 36 1020.1
20260508153123 64 120 4.3 8.7 0.00 0.00 0.00 35 1020.1
20260508151839 64 116 3.5 7.0 0.00 0.00 0.00 36 1020.2
20260508151621 64 116 3.5 7.0 0.00 0.00 0.00 36 1020.2
20260508150145 64 145 2.6 7.8 0.00 0.00 0.00 35 1020.3
20260508144611 64 126 3.5 7.8 0.00 0.00 0.00 35 1020.3
20260508143125 64 126 3.5 8.7 0.00 0.00 0.00 35 1020.3
20260508141555 64 135 2.6 6.1 0.00 0.00 0.00 36 1020.2
20260508140107 65 164 3.5 7.8 0.00 0.00 0.00 34 1020.3
20260508134614 66 139 3.5 7.8 0.00 0.00 0.00 34 1020.4
20260508133150 65 112 1.7 3.5 0.00 0.00 0.00 33 1020.4
20260508131555 66 93 1.7 7.0 0.00 0.00 0.00 33 1020.6
20260508130103 66 93 3.5 6.1 0.00 0.00 0.00 33 1020.3
20260508124608 67 98 5.2 7.8 0.00 0.00 0.00 32 1020.4
20260508123049 67 62 4.3 7.8 0.00 0.00 0.00 31 1020.3
20260508121551 68 93 6.1 8.7 0.00 0.00 0.00 31 1020.0
20260508120107 68 103 4.3 7.0 0.00 0.00 0.00 31 1019.9
20260508114551 68 106 5.2 7.8 0.00 0.00 0.00 30 1020.0
20260508113100 69 99 5.2 7.8 0.00 0.00 0.00 29 1019.8
20260508111650 69 105 3.5 6.1 0.00 0.00 0.00 29 1019.8
20260508110118 70 104 1.7 7.8 0.00 0.00 0.00 29 1019.8
20260508104709 71 109 2.6 9.6 0.00 0.00 0.00 27 1019.6
20260508103050 72 87 4.3 10.4 0.00 0.00 0.00 27 1019.3
20260508101553 72 137 7.0 9.6 0.00 0.00 0.00 26 1019.1
20260508100051 73 168 5.2 11.3 0.00 0.00 0.00 26 1019.1
20260508094554 74 99 7.8 12.2 0.00 0.00 0.00 25 1018.8
20260508093056 74 116 6.1 12.2 0.00 0.00 0.00 25 1018.9
20260508091550 75 92 8.7 14.8 0.00 0.00 0.00 25 1018.9
20260508090108 76 92 10.4 15.6 0.00 0.00 0.00 24 1018.4
20260508084552 77 90 10.4 15.6 0.00 0.00 0.00 23 1018.3
20260508083049 77 119 7.8 14.8 0.00 0.00 0.00 23 1018.3
20260508081553 77 120 10.4 17.4 0.00 0.00 0.00 23 1018.3
20260508080051 78 83 11.3 18.2 0.00 0.00 0.00 22 1018.1
20260508074554 79 93 8.7 15.6 0.00 0.00 0.00 23 1018.1
20260508073102 79 126 9.6 17.4 0.00 0.00 0.00 22 1018.0
20260508071547 80 120 9.6 14.8 0.00 0.00 0.00 22 1017.8
20260508070056 79 107 12.2 19.1 0.00 0.00 0.00 23 1017.8
20260508064553 80 93 7.8 19.1 0.00 0.00 0.00 23 1017.9
20260508063054 80 70 7.8 20.9 0.00 0.00 0.00 23 1018.0
20260508061551 79 105 7.8 20.9 0.00 0.00 0.00 23 1018.0
20260508060051 80 90 11.3 20.0 0.00 0.00 0.00 23 1018.4
20260508054625 79 118 12.2 17.4 0.00 0.00 0.00 23 1018.5
20260508053249 79 35 13.0 20.0 0.00 0.00 0.00 22 1018.5
20260508052111 80 93 7.8 23.5 0.00 0.00 0.00 23 1018.7
20260508050054 79 47 10.4 19.1 0.00 0.00 0.00 25 1019.1
20260508044557 79 71 8.7 20.0 0.00 0.00 0.00 25 1019.4
20260508043049 79 114 9.6 18.2 0.00 0.00 0.00 25 1019.8
20260508041630 78 101 12.2 20.9 0.00 0.00 0.00 26 1020.1
20260508040057 78 74 9.6 21.7 0.00 0.00 0.00 26 1020.4
20260508034600 77 70 13.0 20.9 0.00 0.00 0.00 27 1020.5
20260508033048 77 88 11.3 22.6 0.00 0.00 0.00 27 1020.8
20260508031558 76 79 13.9 22.6 0.00 0.00 0.00 28 1021.2
20260508030110 76 106 13.9 20.9 0.00 0.00 0.00 28 1021.5